Location: ????????
(55.8351°N, 38.7040°E)
Time: 19:26:39
(UTC+00:00)

Okean 1 - Pass Details

Date: 14 April 2024
Orbit: 507 x 530 km, 82.5° (Epoch: 17 May)

Event Time Altitude Azimuth Distance (km) Brightness Sun altitude
Exits shadow 00:54:10 16° 208° (SSW) 1,414 4.9 -11.7°
Maximum altitude 00:57:07 58° 286° (WNW) 606 3.3 -11.4°
Drops below altitude 10° 01:00:53 10° 6° (N) 1,742 6.5 -10.9°
Sets 01:03:03 0° 10° (N) 2,631 7.5 -10.7°
